Location: Mana�l
(15.0115°N, 12.5022°W)
Time: 05:14:42
(UTC+00:00)

Delta 168 - Pass Details

Date: 07 June 2020
Orbit: 394 x 2051 km, 25.3° (Epoch: 05 July)

Event Time Altitude Azimuth Distance (km) Brightness Sun altitude
Exits shadow 05:36:43 - 205° (SSW) 1,586 4.7 -10.1°
Reaches altitude 10° 05:36:55 10° 203° (SSW) 1,524 4.6 -10.1°
Maximum altitude 05:39:39 23° 148° (SSE) 1,086 4.4 -9.5°
Drops below altitude 10° 05:43:00 10° 95° (E) 1,904 6.6 -8.8°
Sets 05:46:08 0° 81° (E) 3,079 8.3 -8.1°
